Wind_Speed
15 15 17 11 14 17 18 16 16 13 12 16 8 14 19 18 14 17 23 28 30 27 28 28 28 27 25 27 30 34 38 37 34 30 26 27 29 28 28 31 28 28 33 25
18 19 15 18 18 17 17 16 15 10 5 8 11 16 19 14 10 13 13 16 18 21 25 28 24 27 28 27 28 27 29 29 34 33 28 29 26 25 25 26 31 30 29 25
20 17 14 15 18 19 17 16 13 13 14 14 13 15 17 14 13 11 11 12 12 12 14 14 22 21 24 27 26 25 25 25 27 32 32 30 28 24 22 29 31 27 32 33
16 14 20 15 14 13 15 14 11 9 7 4 6 6 13 18 18 16 14 14 14 13 12 13 12 12 15 20 24 24 23 26 25 27 30 30 27 26 25 27 25 28 34 34
8 10 9 14 18 18 20 14 10 9 9 11 17 9 11 19 21 20 17 16 14 12 11 10 9 8 9 11 14 17 21 24 27 30 28 29 28 28 28 31 31 28 22 37
16 18 15 13 11 9 11 12 13 13 12 4 20 18 10 20 23 21 18 16 14 11 11 10 9 8 8 7 9 11 14 19 24 27 27 29 31 29 29 32 32 28 30 31
13 15 20 22 20 18 17 12 4 3 0 6 8 13 23 11 18 19 20 17 14 12 9 9 7 8 9 11 11 12 13 14 16 21 26 30 33 33 33 33 33 30 26 22
9 8 10 14 20 15 15 22 9 6 3 3 8 9 11 13 20 21 21 20 16 14 12 11 9 8 7 9 10 10 9 11 11 13 20 26 32 34 35 34 32 32 31 32
6 8 11 16 14 17 12 18 21 12 5 2 8 14 16 17 20 22 24 24 21 17 14 14 12 9 8 7 7 9 7 11 12 13 13 17 26 31 34 37 35 34 32 33
12 13 17 19 17 18 21 11 8 10 2 5 6 10 17 15 24 28 27 27 26 22 19 16 13 12 10 10 10 12 10 9 9 10 13 13 15 21 29 33 32 36 35 35
19 18 14 11 15 22 21 21 15 10 8 5 1 6 7 10 17 25 28 29 29 29 27 24 21 20 18 16 15 13 12 11 10 8 11 13 12 14 18 25 33 37 37 37
18 11 15 20 20 17 21 22 23 19 9 9 6 19 23 23 23 16 26 31 32 33 34 33 32 29 27 26 24 23 21 19 19 15 14 15 15 14 15 16 21 31 37 38
13 11 6 4 16 24 21 24 23 20 18 18 5 17 14 14 14 15 21 26 32 36 39 41 41 40 39 38 38 38 36 32 29 27 26 21 22 20 17 18 18 19 28 37
17 19 16 11 6 5 9 12 16 15 12 15 28 32 31 21 17 17 20 27 33 35 38 40 42 44 44 44 42 40 42 41 37 38 39 34 27 28 26 21 21 21 19 26
20 22 22 24 24 26 31 31 29 29 29 24 40 36 41 37 37 38 39 41 44 43 45 49 51 51 52 52 52 52 51 50 48 42 40 41 39 33 32 28 24 23 22 20
22 19 22 26 22 25 36 32 33 35 36 40 40 49 43 38 32 31 29 31 38 42 45 47 47 48 47 48 45 47 48 47 46 43 40 40 41 41 39 35 28 27 26 24
21 19 15 10 13 21 30 29 22 22 22 24 32 35 23 23 27 30 31 33 34 31 30 33 34 35 34 37 33 35 34 33 33 36 38 37 39 41 44 40 34 29 30 31
26 22 15 9 6 4 21 19 14 15 24 25 26 29 35 35 31 30 32 34 34 33 34 31 32 32 31 34 28 28 25 26 28 29 32 35 34 36 40 41 37 34 33 29
30 25 11 8 16 25 41 34 28 20 33 23 28 34 34 34 33 40 37 33 29 30 32 36 35 35 33 32 27 28 26 26 27 29 29 32 33 34 36 39 37 36 34 33
20 32 28 16 7 8 32 24 22 23 34 32 16 18 21 26 32 36 30 30 30 28 24 27 28 29 32 32 30 29 27 28 28 29 29 31 33 33 35 38 37 37 36 35
20 23 35 35 25 27 38 36 27 13 23 19 22 21 25 32 34 36 33 31 29 33 28 24 29 28 27 27 29 31 32 29 29 30 29 29 30 32 34 37 37 38 38 37
18 15 22 24 15 21 30 24 25 27 22 30 29 32 33 37 37 34 34 34 33 33 31 31 29 28 27 28 32 35 34 32 33 33 32 32 31 30 33 37 37 38 40 38
24 31 24 23 35 32 25 35 35 39 46 40 39 35 37 37 35 35 35 33 32 34 37 36 33 34 35 37 40 40 36 36 36 37 36 35 34 32 32 35 37 39 39 40
33 31 35 36 49 44 41 39 39 42 40 36 34 32 29 35 39 40 38 37 37 36 35 40 41 42 42 37 34 37 38 38 39 38 37 37 36 35 34 33 35 39 40 41
44 41 42 42 46 41 41 38 37 36 38 38 38 39 39 40 40 42 42 41 42 41 41 40 41 41 41 40 39 37 36 39 38 38 38 38 38 38 38 35 35 38 40 41
47 42 37 46 42 42 40 42 39 38 41 41 41 41 43 44 44 40 38 40 41 41 45 47 45 43 43 43 41 40 41 41 41 40 37 36 37 38 41 40 38 37 39 40
Wind_Direction
263 259 267 269 254 253 265 269 276 293 290 290 287 282 282 287 282 269 258 261 253 264 266 263 256 257 256 255 253 250 249 248 245 247 249 250 252 248 249 256 258 258 265 259
266 268 265 257 258 257 256 264 273 301 279 276 293 286 281 283 277 276 267 260 256 259 259 264 264 256 252 253 259 259 254 251 247 242 243 244 247 247 247 258 252 249 234 262
268 271 267 273 258 255 255 258 271 285 283 281 283 280 266 260 284 286 284 281 267 262 266 272 264 266 259 252 253 257 254 250 246 243 243 241 241 245 251 256 260 254 251 239
279 273 259 259 246 242 269 278 277 268 267 250 237 283 256 260 272 279 279 282 285 283 274 270 280 285 265 258 255 258 255 246 242 241 246 245 242 241 249 258 269 260 247 241
272 278 277 251 259 258 278 268 275 271 260 271 262 256 252 251 253 259 260 270 274 281 284 283 279 281 281 273 264 257 256 251 248 243 242 243 239 240 244 254 257 247 257 253
271 264 265 261 253 245 245 263 271 267 263 260 258 232 252 240 248 243 251 259 263 274 282 282 283 284 281 268 267 269 266 257 249 247 245 240 235 237 241 252 254 253 246 265
289 275 265 257 253 251 245 250 300 322 153 225 222 212 238 256 240 238 249 247 245 248 255 274 278 283 288 290 286 287 288 283 265 249 244 240 242 244 243 245 246 247 246 237
281 281 250 250 239 245 254 237 205 214 211 272 197 235 247 255 241 238 238 237 232 228 229 236 250 264 274 280 286 292 295 299 297 276 255 247 244 245 246 250 247 242 243 236
239 255 252 246 246 233 235 226 237 251 286 324 235 253 258 251 236 234 233 235 233 227 229 237 243 245 252 252 255 275 297 305 306 303 291 268 253 249 249 249 251 246 240 242
251 267 268 250 243 237 231 231 205 206 157 236 265 257 250 248 249 236 232 233 237 237 238 240 242 243 241 245 251 255 258 270 291 303 292 287 283 263 253 254 246 251 245 242
240 244 255 243 235 238 230 231 228 221 216 182 241 251 253 278 272 253 240 240 243 246 249 251 256 259 256 255 251 252 252 260 272 295 300 299 298 299 277 261 253 249 247 245
242 251 253 253 249 245 243 242 236 230 231 230 235 261 259 272 291 280 257 256 258 260 260 261 262 262 265 266 265 263 265 260 259 271 279 290 302 305 305 294 269 256 250 246
233 235 266 275 249 249 247 249 247 244 251 250 227 258 281 278 284 290 270 270 270 269 270 270 271 271 272 274 274 273 274 275 273 275 283 280 289 300 304 301 297 280 259 248
241 238 238 237 259 262 254 260 258 254 249 251 251 263 267 271 278 280 275 268 267 269 274 276 280 288 291 290 288 286 281 283 283 287 282 283 280 288 293 295 298 294 287 261
241 251 254 258 263 269 270 268 269 267 265 258 268 271 271 277 283 283 275 272 272 272 277 282 285 287 288 290 291 291 289 287 288 280 279 281 280 282 287 287 289 295 292 287
246 258 268 272 270 271 273 271 268 265 267 267 273 276 283 284 280 278 277 279 275 273 270 271 274 278 280 282 285 287 287 287 286 283 278 271 271 276 282 282 283 286 293 291
249 252 264 274 280 281 280 280 270 269 265 268 264 281 285 271 280 285 288 282 276 276 276 269 267 271 273 275 277 280 285 288 284 281 278 275 271 270 272 275 274 272 276 284
252 253 245 274 265 286 270 264 274 268 280 272 270 271 282 288 292 289 275 274 272 272 263 263 266 265 263 268 270 276 284 291 291 283 277 277 272 268 267 269 269 267 267 267
250 246 233 237 214 274 274 275 273 278 290 277 269 276 285 290 287 278 279 287 288 280 270 264 263 263 264 262 268 274 283 292 297 291 286 280 276 269 264 264 261 259 258 262
239 238 235 227 220 229 278 283 288 301 280 295 288 282 280 284 286 290 295 280 274 275 285 274 265 264 265 266 271 274 281 289 295 291 288 286 281 274 265 262 260 254 251 253
228 226 223 232 238 261 273 280 284 251 279 297 299 280 286 286 289 293 296 285 276 281 267 271 272 274 271 270 273 276 279 285 287 284 285 286 285 280 272 263 261 254 248 245
248 238 232 229 241 259 274 261 249 266 283 302 292 288 281 286 289 291 289 291 278 272 266 263 261 263 268 275 277 273 275 280 281 280 281 282 283 284 283 273 264 257 250 244
247 253 259 243 260 272 276 284 285 283 288 289 286 280 278 279 282 286 286 284 283 276 272 266 266 267 270 276 278 273 271 276 277 276 277 277 277 280 284 280 273 262 253 248
270 268 260 265 282 276 281 283 281 287 287 286 285 284 280 280 283 282 281 278 277 275 272 266 267 269 272 270 273 275 275 273 274 276 277 274 272 273 276 284 281 271 259 251
281 282 280 275 281 285 285 283 280 281 284 288 288 288 288 287 288 286 282 279 275 273 271 269 268 269 271 273 273 270 268 268 271 272 273 271 269 268 272 279 287 276 264 254
285 281 270 277 291 281 288 279 280 281 283 288 289 286 283 284 287 287 285 282 280 276 272 269 270 270 270 269 267 265 266 268 270 270 271 272 268 267 270 276 279 280 270 256
Height
3077 3078 3076 3077 3076 3075 3076 3076 3077 3079 3079 3077 3076 3074 3070 3070 3070 3069 3067 3067 3067 3070 3070 3071 3073 3074 3076 3077 3079 3081 3083 3085 3089 3092 3095 3097 3098 3100 3102 3103 3104 3104 3104 3105
3076 3074 3075 3074 3073 3073 3072 3073 3074 3076 3075 3075 3073 3071 3068 3067 3067 3065 3064 3062 3062 3063 3064 3065 3066 3068 3070 3072 3073 3075 3077 3079 3082 3085 3088 3090 3093 3095 3096 3096 3097 3100 3095 3101
3072 3073 3072 3072 3072 3072 3071 3071 3071 3073 3073 3073 3071 3067 3065 3064 3063 3062 3061 3060 3059 3059 3060 3060 3060 3061 3063 3066 3068 3070 3071 3073 3076 3079 3082 3085 3087 3089 3090 3091 3090 3092 3089 3094
3070 3069 3068 3068 3070 3072 3072 3072 3070 3068 3070 3071 3070 3066 3061 3061 3060 3059 3059 3058 3056 3056 3056 3056 3056 3057 3058 3060 3063 3065 3067 3068 3070 3073 3076 3079 3081 3082 3084 3086 3085 3087 3085 3087
3069 3067 3067 3066 3067 3070 3070 3070 3070 3068 3067 3067 3066 3067 3055 3057 3056 3056 3055 3055 3055 3054 3054 3054 3054 3055 3056 3057 3058 3059 3060 3062 3064 3067 3069 3072 3074 3076 3077 3080 3080 3082 3083 3084
3064 3065 3065 3065 3065 3066 3067 3067 3067 3067 3066 3065 3059 3061 3050 3050 3051 3052 3052 3053 3053 3052 3052 3052 3052 3052 3053 3054 3054 3055 3055 3056 3058 3060 3063 3065 3067 3069 3071 3073 3075 3075 3078 3080
3059 3060 3060 3062 3062 3063 3063 3064 3066 3068 3068 3059 3053 3054 3045 3046 3048 3049 3049 3050 3051 3051 3051 3050 3050 3051 3051 3051 3051 3051 3051 3052 3053 3054 3056 3059 3061 3063 3065 3066 3068 3070 3071 3074
3056 3055 3055 3055 3056 3057 3057 3060 3061 3070 3065 3055 3053 3046 3040 3042 3044 3045 3046 3047 3048 3048 3048 3048 3048 3049 3049 3050 3049 3048 3048 3049 3049 3050 3051 3052 3054 3056 3058 3060 3060 3062 3065 3068
3053 3051 3050 3051 3052 3053 3053 3053 3055 3055 3055 3055 3048 3041 3039 3038 3040 3040 3042 3043 3045 3046 3046 3046 3046 3046 3046 3046 3047 3047 3046 3046 3046 3046 3047 3047 3048 3049 3050 3051 3053 3055 3057 3060
3049 3048 3046 3047 3048 3048 3047 3050 3050 3050 3055 3055 3040 3038 3035 3034 3035 3036 3037 3039 3041 3042 3043 3043 3043 3043 3043 3043 3043 3043 3043 3043 3043 3043 3044 3043 3043 3043 3044 3044 3046 3048 3051 3053
3044 3045 3043 3044 3043 3042 3043 3042 3044 3043 3042 3043 3045 3033 3032 3032 3033 3035 3035 3035 3036 3037 3038 3039 3039 3039 3039 3039 3039 3039 3039 3039 3039 3039 3040 3040 3039 3038 3038 3037 3038 3039 3042 3046
3041 3039 3036 3038 3037 3038 3037 3037 3037 3037 3036 3034 3033 3027 3028 3030 3031 3033 3033 3033 3033 3033 3033 3033 3033 3034 3033 3033 3033 3034 3034 3034 3034 3034 3034 3035 3035 3034 3033 3033 3032 3032 3035 3038
3036 3033 3033 3032 3034 3032 3032 3031 3031 3032 3031 3028 3033 3022 3023 3026 3028 3029 3029 3030 3029 3028 3027 3026 3026 3025 3025 3025 3026 3027 3027 3028 3028 3029 3029 3029 3030 3030 3028 3028 3027 3026 3027 3029
3032 3029 3028 3028 3028 3028 3028 3027 3027 3028 3028 3025 3020 3021 3020 3022 3024 3026 3026 3025 3023 3022 3020 3019 3017 3016 3015 3015 3016 3017 3018 3019 3020 3021 3022 3022 3022 3024 3024 3023 3022 3022 3021 3021
3027 3024 3024 3023 3024 3023 3020 3021 3021 3020 3022 3022 3013 3014 3013 3018 3018 3019 3018 3016 3014 3013 3012 3009 3007 3007 3006 3006 3005 3006 3007 3008 3010 3012 3012 3013 3014 3015 3017 3017 3016 3016 3016 3015
3021 3019 3018 3016 3018 3017 3009 3011 3012 3011 3012 3010 3010 3001 3007 3008 3006 3005 3004 3003 3002 3001 3001 3001 2999 2997 2997 2997 2997 2996 2996 2997 2999 3001 3002 3003 3004 3006 3007 3010 3010 3010 3011 3010
3017 3016 3015 3011 3012 3010 3000 2997 2998 3000 3001 3001 2998 2996 2997 2997 2997 2997 2996 2994 2991 2991 2990 2989 2988 2988 2987 2986 2988 2987 2986 2986 2987 2989 2991 2992 2993 2995 2997 2999 3002 3003 3005 3005
3010 3011 3012 3009 3010 3010 2991 2989 2991 2992 2993 2993 2992 2990 2989 2989 2988 2987 2983 2982 2982 2981 2981 2980 2980 2979 2978 2978 2979 2978 2978 2977 2976 2977 2979 2980 2981 2983 2985 2988 2991 2993 2996 2998
3003 3005 3006 3006 3004 2992 2983 2986 2987 2986 2980 2985 2983 2981 2980 2980 2979 2972 2975 2975 2973 2972 2971 2969 2969 2969 2969 2969 2970 2969 2969 2968 2968 2967 2968 2969 2969 2972 2973 2976 2979 2982 2984 2988
2995 2998 3001 2999 2998 2992 2976 2979 2979 2979 2971 2972 2973 2973 2972 2970 2966 2963 2966 2966 2964 2963 2961 2961 2960 2960 2960 2962 2960 2960 2961 2960 2959 2958 2959 2960 2959 2960 2962 2964 2967 2970 2973 2976
2990 2989 2987 2987 2987 2975 2969 2974 2973 2973 2970 2967 2966 2966 2964 2961 2961 2956 2955 2955 2955 2953 2953 2952 2952 2951 2952 2953 2951 2951 2951 2951 2951 2950 2951 2951 2951 2951 2952 2953 2955 2958 2961 2963
2982 2983 2980 2982 2981 2970 2967 2967 2967 2962 2960 2960 2958 2956 2953 2951 2949 2948 2946 2945 2945 2944 2944 2943 2942 2942 2944 2944 2942 2942 2942 2943 2940 2941 2942 2942 2943 2943 2943 2943 2944 2946 2948 2951
2974 2971 2971 2970 2963 2961 2961 2960 2958 2956 2952 2950 2948 2945 2943 2941 2939 2938 2936 2935 2934 2934 2934 2934 2933 2933 2934 2934 2933 2932 2932 2932 2930 2931 2932 2933 2934 2935 2934 2932 2932 2933 2936 2938
2961 2961 2959 2958 2949 2952 2953 2951 2949 2945 2940 2938 2936 2934 2932 2931 2929 2927 2925 2925 2923 2923 2922 2921 2921 2920 2921 2922 2921 2920 2921 2920 2920 2920 2921 2922 2923 2925 2925 2923 2923 2922 2925 2926
2954 2952 2948 2942 2940 2942 2939 2938 2935 2933 2931 2929 2927 2924 2922 2919 2918 2914 2913 2912 2911 2910 2909 2908 2907 2907 2908 2909 2909 2908 2908 2907 2908 2909 2910 2911 2912 2913 2914 2914 2913 2911 2913 2913
2943 2939 2937 2930 2934 2929 2928 2924 2923 2921 2919 2917 2915 2913 2911 2906 2904 2901 2899 2898 2896 2895 2895 2894 2893 2893 2894 2894 2895 2895 2896 2896 2896 2897 2898 2900 2900 2900 2901 2901 2902 2901 2899 2902